This demonstration page uses our WeatherBlox Daily Observations layout. Learn more.

Left ArrowRight Arrow

36.17497, -115.13722

Hourly Observations for April 29, 2020

Temp ( °F °C ) Dew Point ( °F °C ) Humidity (%) Winds ( mph kmh ) Pressure ( in mb ) Visibility ( mi km ) Precip ( " mm )
12:53 am 00:53 Clear 78 25.6 40 4.4 26 26 W 6 9 29.98 1015 10 16 N/A
1:53 am 01:53 Clear 77 25 40 4.4 26 26 N N/A 29.98 1015 10 16 N/A
2:53 am 02:53 Clear 77 25 39 3.9 26 26 SW 7 11 29.97 1015 10 16 N/A
3:53 am 03:53 Clear 76 24.4 39 3.9 26 26 SW 7 11 29.98 1015 10 16 N/A
4:53 am 04:53 Clear 75 23.9 39 3.9 27 27 SSW 6 9 29.98 1015 10 16 N/A
5:53 am 05:53 Sunny 73 22.8 39 3.9 29 29 W 3 6 29.99 1016 10 16 N/A
6:53 am 06:53 Sunny 73 22.8 41 5 32 32 NW 5 7 30.01 1016 10 16 N/A
7:53 am 07:53 Sunny 80 26.7 42 5.6 26 26 N N/A 30.01 1016 10 16 N/A
8:53 am 08:53 Sunny 83 28.3 40 4.4 22 22 N N/A 30.01 1016 10 16 N/A
9:53 am 09:53 Sunny 86 30 39 3.9 19 19 VRB 5 7 30.01 1016 10 16 N/A
10:53 am 10:53 Sunny 90 32.2 38 3.3 16 16 N N/A 30.00 1016 10 16 N/A
11:53 am 11:53 Sunny 94 34.4 36 2.2 13 13 ESE 6 9 29.98 1015 10 16 N/A
12:53 pm 12:53 Sunny 94 34.4 36 2.2 13 13 VRB 5 7 29.95 1014 10 16 N/A
1:53 pm 13:53 Sunny 97 36.1 37 2.8 12 12 E 9 15 29.91 1013 10 16 N/A
2:53 pm 14:53 Sunny 97 36.1 36 2.2 12 12 VRB 5 7 29.88 1012 10 16 N/A
3:53 pm 15:53 Sunny 98 36.7 36 2.2 11 11 SSE 9 15 29.85 1011 10 16 N/A
4:53 pm 16:53 Sunny 99 37.2 36 2.2 11 11 VRB 6 9 29.83 1010 10 16 N/A
5:53 pm 17:53 Sunny 98 36.7 36 2.2 11 11 ESE 14 22 29.82 1010 10 16 N/A
6:53 pm 18:53 Sunny 96 35.6 36 2.2 12 12 ESE 12 19 29.82 1010 10 16 N/A
7:53 pm 19:53 Clear 94 34.4 36 2.2 13 13 ESE 8 13 29.82 1010 10 16 N/A
8:53 pm 20:53 Clear 93 33.9 36 2.2 13 13 WSW 5 7 29.83 1010 10 16 N/A
9:53 pm 21:53 Clear 90 32.2 33 0.6 13 13 S 8 13 29.84 1010 10 16 N/A
10:53 pm 22:53 Clear 88 31.1 32 undefined 13 13 SSW 7 11 29.83 1010 10 16 N/A
11:53 pm 23:53 Clear 87 30.6 33 0.6 14 14 S 8 13 29.83 1010 10 16 N/A

Powered by AerisWeather